STARLINK-32190 (60318 NORAD) Tracking and Keplerian Element Data

This shows tracking and keplerian element data for the satellite.

Feedback or suggestion? Click here.




ElementValue
Catalog60318
NameSTARLINK-32190
Epoch Orbit1302
Epoch Day286.82816208
Epoch Year2024
RAAN166.0192
Inclination53.1579
Eccentricity0.0001669
Argument of Perigee42.8067
Mean Anonmoly317.3068
Mean Motion15.39629096
Decay Rate-0.00085242
L11 60318U 24133T 24286.82816208 -.00085242 00000+0 -21442-2 0 9995
L22 60318 53.1579 166.0192 0001669 42.8067 317.3068 15.39629096 13028



Live tracking and technical data element details for STARLINK-32190 (NORAD 60318). STARLINK-32190 can be tracked NOW for your location showing map with azimuth and elevation plus other details from your city location.







IsCatalogInMostPopularTable: catalog: 60318, numindb: 7
Update: records affected: 1



GetName: 60318 STARLINK-32190

Hit Count: updated at: Wed, 04 Dec 2024 12:48:16 GMT